DateTimeUTC,F1_A11,F1_S11,BsB_S11,BsG_S11,BsR_S11,BbsB_S11,BbsG_S11,BbsR_S11,BaB_A11,BaG_A11,BaR_A11,Tu_S11,T_S11,Uu_S11,U_S11,P_S11,T1_A11
2021-05-30T11:00:00Z,00000200,20000000,,,,,,,-000.08,-000.16,0000.19,18.1,24.5,04.9,03.3,0662.0,31.0
2021-05-30T11:01:00Z,00000200,20000000,,,,,,,-000.03,-000.15,-000.20,18.1,24.5,04.9,03.3,0662.0,31.0
2021-05-30T11:02:00Z,00000200,20000000,,,,,,,0000.06,0000.41,0000.17,18.1,24.6,04.9,03.3,0662.0,31.0
2021-05-30T11:03:00Z,00000200,60000000,,,,,,,0000.34,0000.14,0000.16,18.1,24.6,04.9,03.3,0662.0,31.0
2021-05-30T11:04:00Z,00000200,40000000,0001.61,0000.83,0000.76,0000.38,0000.07,0000.46,-000.18,-000.09,-000.28,18.3,24.4,05.1,03.5,0662.9,31.0
2021-05-30T11:05:00Z,00000200,00000000,0001.63,0001.02,0000.66,-000.18,0000.27,0000.02,0000.03,0000.12,0000.37,18.3,24.4,05.2,03.6,0663.0,31.0
2021-05-30T11:06:00Z,00000200,00000000,0000.85,0000.77,0000.86,-000.11,0000.12,0000.13,0000.25,0000.18,0000.07,18.4,24.4,05.1,03.5,0663.0,31.0
2021-05-30T11:07:00Z,00000200,00000000,0000.42,0000.74,0000.40,-000.12,0000.20,0000.04,0000.13,0000.24,0000.52,18.4,24.4,05.2,03.6,0663.0,31.0
2021-05-30T11:08:00Z,00000200,00000000,0001.12,0000.75,0000.82,0000.27,-000.21,0000.12,-000.01,-000.11,-000.41,18.4,24.4,05.2,03.6,0663.0,31.0
2021-05-30T11:09:00Z,00000200,00000000,0001.45,0000.75,0000.50,-000.05,0000.14,0000.10,0000.46,0000.43,0000.50,18.4,24.4,05.2,03.6,0663.0,31.0
2021-05-30T11:10:00Z,00000200,00000000,0001.24,0001.25,0000.70,0000.39,0000.39,0000.23,-000.14,0000.15,-000.04,18.4,24.4,05.1,03.6,0663.0,31.0
2021-05-30T11:11:00Z,00000200,00000000,0001.09,0000.95,0000.55,0000.20,0000.21,0000.03,0000.30,0000.23,0000.26,18.5,24.4,05.1,03.5,0663.0,31.0
2021-05-30T11:12:00Z,00000200,00000000,0001.46,0000.93,0000.62,0000.09,-000.03,0000.31,0002.42,0002.17,0001.66,18.5,24.4,05.3,03.7,0663.0,31.0
2021-05-30T11:13:00Z,00000200,00000000,0001.16,0000.76,0000.65,-000.01,0000.04,0000.13,0000.98,0000.52,0000.70,18.5,24.4,05.2,03.6,0663.0,31.0
2021-05-30T11:14:00Z,00000200,00000000,0001.22,0001.10,0001.01,-000.08,0000.25,0000.27,0000.74,0001.23,0000.19,18.5,24.4,05.3,03.7,0663.0,31.0
2021-05-30T11:15:00Z,00000200,00000000,0000.83,0000.94,0000.37,0000.13,0000.12,0000.01,0001.22,0001.14,0001.31,18.5,24.4,05.3,03.6,0663.0,31.0
2021-05-30T11:16:00Z,00000200,00000000,0001.26,0001.23,0000.69,-000.14,0000.10,0000.53,0002.80,0002.10,0001.86,18.5,24.4,05.3,03.7,0663.0,31.0
2021-05-30T11:17:00Z,00000200,00000000,0001.05,0001.12,0000.80,0000.23,0000.19,0000.25,0002.10,0002.23,0001.25,18.5,24.4,05.2,03.6,0662.9,31.0
2021-05-30T11:18:00Z,00000200,00000000,0000.61,0000.99,0000.87,0000.30,0000.05,0000.21,0000.76,0000.54,0000.52,18.5,24.5,05.3,03.7,0662.9,31.0
2021-05-30T11:19:00Z,00000200,00000000,0001.28,0001.00,0000.38,-000.62,0000.28,-000.05,0000.98,0000.93,0000.46,18.5,24.5,05.3,03.7,0662.9,31.0
2021-05-30T11:20:00Z,00000200,00000000,0000.85,0000.50,0000.74,0000.31,0000.06,0000.28,0001.79,0001.92,0001.65,18.5,24.5,05.3,03.7,0662.9,31.0
2021-05-30T11:21:00Z,00000200,00000000,0001.94,0001.05,0000.59,-000.28,0000.24,0000.34,0002.82,0002.06,0001.79,18.5,24.5,05.3,03.7,0662.9,31.0
2021-05-30T11:22:00Z,00000200,00000000,0001.45,0000.85,0000.32,0000.46,0000.37,0000.04,0002.61,0002.54,0001.80,18.5,24.5,05.3,03.7,0662.9,31.0
2021-05-30T11:23:00Z,00000200,00000000,0001.39,0000.97,0000.51,-000.00,0000.14,0000.19,0002.84,0002.39,0002.00,18.6,24.5,05.4,03.8,0662.9,31.0
2021-05-30T11:24:00Z,00000200,00000000,0001.41,0000.96,0000.56,-000.39,0000.24,0000.25,0003.20,0003.22,0002.31,18.6,24.5,05.4,03.8,0662.9,31.0
2021-05-30T11:25:00Z,00000200,00000000,0001.12,0001.15,0000.51,0000.06,0000.30,0000.22,0003.70,0003.09,0002.55,18.6,24.5,05.4,03.7,0662.9,31.0
2021-05-30T11:26:00Z,00000200,00000000,0001.45,0001.02,0000.88,-000.01,0000.18,0000.18,0003.06,0003.07,0002.32,18.6,24.5,05.4,03.8,0662.9,31.0
2021-05-30T11:27:00Z,00000200,00000000,0002.10,0000.91,0000.72,0000.08,0000.31,0000.32,0002.80,0002.38,0001.94,18.6,24.5,05.5,03.9,0662.9,31.0
2021-05-30T11:28:00Z,00000200,00000000,0001.29,0000.86,0000.71,0000.09,-000.04,0000.02,0002.97,0003.08,0001.81,18.6,24.5,05.5,03.8,0662.9,31.0
2021-05-30T11:29:00Z,00000200,00000000,0001.56,0000.93,0000.83,0000.00,-000.07,0000.39,0003.11,0002.43,0002.52,18.6,24.5,05.5,03.9,0662.9,31.0
2021-05-30T11:30:00Z,00000200,00000000,0000.86,0001.16,0000.86,0000.20,0000.41,0000.44,0002.57,0002.59,0001.64,18.7,24.5,05.5,03.8,0662.9,31.0
2021-05-30T11:31:00Z,00000200,00000000,0001.14,0000.87,0000.60,-000.10,0000.41,0000.46,0002.90,0002.42,0001.93,18.7,24.5,05.6,03.9,0662.9,31.0
2021-05-30T11:32:00Z,00000200,00000000,0001.98,0001.02,0000.64,0000.74,0000.46,0000.36,0003.16,0002.98,0002.11,18.7,24.5,05.7,04.0,0662.9,31.0
2021-05-30T11:33:00Z,00000200,00000000,0001.49,0000.79,0000.89,-000.15,0000.03,0000.32,0002.54,0002.29,0001.87,18.7,24.5,05.8,04.1,0662.9,31.0
2021-05-30T11:34:00Z,00000200,00000000,0001.25,0000.95,0000.40,-000.12,0000.30,0000.42,0003.40,0002.83,0002.57,18.7,24.5,05.5,03.8,0662.9,31.0
2021-05-30T11:35:00Z,00000200,00000000,0001.81,0001.14,0000.71,-000.37,0000.15,0000.39,0002.98,0002.93,0002.00,18.7,24.6,05.7,04.0,0662.9,31.0
2021-05-30T11:36:00Z,00000200,00000000,0001.38,0000.83,0000.64,0000.28,0000.21,0000.29,0002.86,0001.90,0002.11,18.7,24.6,05.6,03.9,0662.9,31.0
2021-05-30T11:37:00Z,00000200,00000000,0001.48,0001.01,0000.64,-000.01,0000.03,0000.17,0003.03,0002.75,0002.02,18.7,24.6,05.4,03.8,0662.9,31.0
2021-05-30T11:38:00Z,00000200,00000000,0001.63,0000.93,0000.41,0000.12,0000.48,0000.10,0002.69,0003.26,0001.82,18.7,24.6,05.6,03.9,0662.9,31.0
2021-05-30T11:39:00Z,00000200,00000000,0001.37,0001.07,0000.68,0000.26,0000.10,0000.07,0002.62,0002.16,0001.85,18.7,24.6,05.6,03.9,0662.9,31.0
2021-05-30T11:40:00Z,00000200,00000000,0001.20,0000.87,0000.65,0000.19,0000.35,0000.22,0002.56,0002.69,0002.18,18.7,24.6,05.3,03.7,0662.9,31.0
2021-05-30T11:41:00Z,00000200,00000000,0001.42,0000.71,0000.67,0000.41,0000.28,0000.42,0002.87,0002.28,0001.37,18.7,24.6,05.4,03.8,0662.8,31.0
2021-05-30T11:42:00Z,00000200,00000000,0000.91,0001.08,0000.37,0000.10,0000.24,0000.05,0001.83,0001.80,0001.71,18.7,24.6,05.3,03.7,0662.8,31.0
2021-05-30T11:43:00Z,00000200,00000000,0001.55,0000.78,0000.69,-000.40,0000.09,0000.21,0002.07,0002.30,0001.49,18.7,24.6,05.3,03.7,0662.9,31.0
2021-05-30T11:44:00Z,00000200,00000000,0001.12,0000.92,0000.33,0000.01,0000.03,0000.16,0002.56,0001.56,0001.77,18.7,24.6,05.4,03.8,0662.9,31.0
2021-05-30T11:45:00Z,00000200,00000000,0001.29,0001.22,0001.02,0000.28,0000.08,0000.55,0001.05,0001.05,0000.72,18.8,24.6,05.3,03.7,0662.9,31.1
2021-05-30T11:46:00Z,00000200,00000000,0001.20,0000.86,0000.78,0000.41,0000.23,0000.00,0001.37,0001.68,0000.78,18.8,24.6,05.4,03.7,0662.8,31.0
2021-05-30T11:47:00Z,00000200,00000000,0001.09,0000.56,0000.71,-000.05,0000.20,0000.17,0001.25,0000.59,0000.97,18.8,24.6,05.4,03.7,0662.8,31.0
2021-05-30T11:48:00Z,00000200,00000000,0001.76,0000.49,0000.79,0000.24,0000.32,0000.33,0000.33,0000.81,0000.56,18.8,24.7,05.2,03.6,0662.8,31.0
2021-05-30T11:49:00Z,00000200,00000000,0001.42,0000.89,0000.92,0000.27,0000.22,0000.34,0000.92,0000.67,0000.46,18.8,24.6,05.3,03.7,0662.8,31.0
2021-05-30T11:50:00Z,00000200,00000000,0001.16,0001.01,0000.63,0000.39,0000.09,0000.19,0000.57,0000.51,0000.62,18.8,24.7,05.4,03.8,0662.8,31.0
2021-05-30T11:51:00Z,00000200,00000000,0001.17,0000.95,0000.45,0000.17,0000.24,0000.17,0000.79,0000.72,0000.47,18.8,24.7,05.4,03.8,0662.8,31.0
2021-05-30T11:52:00Z,00000200,00000000,0000.89,0000.70,0000.29,0000.39,0000.29,-000.01,0000.46,0000.65,0000.46,18.8,24.7,05.4,03.7,0662.8,31.0
2021-05-30T11:53:00Z,00000200,00000000,0000.97,0001.06,0000.82,-000.61,0000.20,0000.40,0000.47,0000.17,0000.25,18.8,24.7,05.5,03.8,0662.8,31.0
2021-05-30T11:54:00Z,00000200,00000000,0001.04,0000.81,0000.61,0000.12,0000.34,0000.09,0000.32,0000.33,-000.04,18.8,24.7,05.4,03.8,0662.8,31.0
2021-05-30T11:55:00Z,00000200,00000000,0001.96,0001.15,0000.84,0000.11,0000.24,0000.15,0000.45,0000.32,0000.11,18.8,24.7,05.4,03.8,0662.7,31.0
2021-05-30T11:56:00Z,00000200,00000000,0001.68,0000.39,0000.73,0000.13,0000.11,0000.34,0000.09,0000.36,0000.59,18.8,24.7,05.4,03.8,0662.7,31.0
2021-05-30T11:57:00Z,00000200,40000000,,,,,,,0000.28,0000.02,-000.26,18.9,24.7,05.3,03.7,0662.6,31.0
2021-05-30T11:58:00Z,00000200,60000000,,,,,,,0000.14,0000.20,0000.49,18.6,24.8,05.5,03.7,0661.7,31.0
2021-05-30T11:59:00Z,00000200,20000000,,,,,,,0000.10,0000.04,-000.30,18.6,24.9,05.4,03.7,0661.7,31.0
